Home > Weather > Erkrath > Past weeks

Flag for Germany Weather for the Past 2 Weeks in Erkrath, North Rhine-Westphalia, Germany

Now
45 °F

Scattered clouds.


Feels Like: 38 °F
Forecast: 37 / 43 °F
Wind: 14 mph from Southwest

Location: Duesseldorf

Current Time: Feb 10, 2016 at 2:44:14 PM

Latest Report: Feb 10, 2016 at 2:20 PM


Visibility: N/A

Pressure: 29.33 "Hg

Humidity: 81%

Dew point: 39 °F

Location of ErkrathLocation

Historic Weather in Erkrath — Graph

°F

Erkrath Temperature Yesterday

Maximum temperature yesterday: 50 °F (at 4:20 PM)
Minimum temperature yesterday: 36 °F (at 7:50 PM)
Average temperature yesterday: 43 °F

High & Low Weather Summary for the Past Weeks

 TemperatureHumidityPressure
High54 °F (Jan 26, 1:20 PM)100% (Jan 28, 4:20 AM)30.33 "Hg (Jan 28, 4:20 AM)
Low36 °F (Jan 28, 10:50 PM)57% (Jan 28, 2:50 PM)28.77 "Hg (Feb 9, 4:20 PM)
Average46 °F82%29.87 "Hg
* Reported Jan 26 1:20 PM — Feb 10 1:20 PM, Erkrath, Weather by CustomWeather, © 2016

Note: Actual official high and low records may vary slightly from our data, if they occured in-between our weather recording intervals... More about our weather records

Advertising

Erkrath Weather History for the Previous 24 Hours

 ConditionsComfort  
Time TempWeatherWind HumidityBarometerVisibility
1:20 PM
Wed, Feb 10
41 °FPartly sunny.14 mph87%29.33 "HgN/A
12:50 PM41 °FPartly sunny.14 mph87%29.33 "HgN/A
12:20 PM39 °FPartly sunny.14 mph93%29.33 "HgN/A
11:50 AM39 °FPartly sunny.15 mph93%29.33 "HgN/A
11:20 AM39 °FPartly sunny.16 mph87%29.33 "HgN/A
10:50 AM39 °FLight rain. Partly sunny.16 mph87%29.30 "HgN/A
10:20 AM39 °FLight rain. Partly sunny.16 mph87%29.30 "HgN/A
9:50 AM39 °FLight rain. Partly sunny.14 mph87%29.30 "HgN/A
9:20 AM39 °FLight rain. Partly sunny.15 mph87%29.27 "HgN/A
8:50 AM37 °FLight rain. Overcast.16 mph93%29.27 "HgN/A
8:20 AM37 °FLight rain. More clouds than sun.17 mph93%29.27 "HgN/A
7:50 AM37 °FLight rain. Mostly cloudy.18 mph93%29.27 "HgN/A
7:20 AM39 °FLight rain. Mostly cloudy.17 mph87%29.24 "HgN/A
6:50 AM37 °FLight rain. Mostly cloudy.16 mph93%29.24 "HgN/A
6:20 AM37 °FLight rain. Partly cloudy.16 mph93%29.24 "HgN/A
5:50 AM39 °FLight rain. Partly cloudy.20 mph87%29.24 "HgN/A
5:20 AM39 °FSprinkles. Partly cloudy.18 mph87%29.24 "HgN/A
4:50 AM39 °FPartly cloudy.17 mph87%29.24 "HgN/A
4:20 AM39 °FPassing clouds.14 mph87%29.24 "HgN/A
3:50 AM37 °FPartly cloudy.12 mph93%29.27 "HgN/A
3:20 AM39 °FRain showers. Partly cloudy.15 mph87%29.27 "HgN/A
2:50 AM39 °FPassing clouds.10 mph87%29.27 "HgN/A
2:20 AM37 °FPassing clouds.12 mph87%29.27 "HgN/A
1:50 AM37 °FPassing clouds.12 mph87%29.27 "HgN/A
1:20 AM37 °FPassing clouds.14 mph87%29.27 "HgN/A
12:20 AM39 °FPassing clouds.14 mph87%29.24 "HgN/A
11:50 PM
Tue, Feb 9
39 °FPassing clouds.13 mph87%29.24 "HgN/A
11:20 PM39 °FPartly cloudy.13 mph93%29.21 "HgN/A
10:20 PM39 °FPassing clouds.14 mph93%29.18 "HgN/A
9:50 PM39 °FPassing clouds.16 mph93%29.18 "HgN/A
9:20 PM39 °FPartly cloudy.18 mph93%29.15 "HgN/A
8:50 PM37 °FLight rain. Passing clouds.17 mph100%29.12 "HgN/A
8:20 PM36 °FLight rain. Passing clouds.16 mph100%29.12 "Hg4 mi
7:50 PM36 °FLight rain. Passing clouds.20 mph93%29.09 "Hg5 mi
7:20 PM37 °FPassing clouds.20 mph93%29.03 "Hg5 mi
6:50 PM37 °FPassing clouds.20 mph93%29.00 "HgN/A
6:20 PM37 °FPassing clouds.20 mph100%28.94 "Hg4 mi
5:50 PM41 °FSprinkles. Partly cloudy.30 mph93%28.91 "Hg4 mi
4:50 PM48 °FPartly sunny.23 mph76%28.82 "HgN/A
4:20 PM50 °FScattered clouds.15 mph76%28.77 "HgN/A
3:20 PM48 °FBroken clouds.18 mph87%28.82 "HgN/A
2:50 PM48 °FSprinkles. Broken clouds.18 mph87%28.85 "HgN/A
2:20 PM46 °FSprinkles. Partly sunny.18 mph87%28.88 "HgN/A
Weather by CustomWeather, © 2016

See weather overviewHow to use our weather pages